www.pogodaiklimat.ru

Погода и климат >> Архив погоды >> Канада >> Нунавут >> Джойа Хейвен


ПОГОДА в Джойа Хейвен

  • Прогноз погоды в Джойа Хейвен
  • Монитор погоды в Джойа Хейвен

АРХИВ ПОГОДЫ в Джойа Хейвен

Время (UTC), дата Ветер
(напр.,м/с)
 
Видим.   Явления Облачность Т
(С)
Тd
(С)
f
(%)
Тe
(С)
Тes
(С)
Комфортность P
(гПа)
Po
(гПа)
Тmin
(С)
Tmax
(С)
R
(мм)
R24
(мм)
S
(см)
09 18.05 С 4 н/о н/о -11.4 -12.6 91 -18 -18 1032.0 1026.5
12 18.05 СЗ 3 н/о н/о -10.6 -11.7 92 -16 -16 1032.6 1027.1 -11.9 -6.9 73
15 18.05 СЗ 2 н/о н/о -9.3 -10.5 91 -13 -13 1032.6 1027.0
18 18.05 СЗ 2 н/о н/о -7.9 -9.0 92 -12 -12 1032.6 1027.0 -11.9 -7.9
21 18.05 СЗ 2 н/о н/о -6.5 -7.5 93 -10 -10 1032.6 1027.1
00 19.05 С 2 н/о н/о -6.8 -7.6 94 -11 -11 1032.5 1027.0 -11.9 -6.0
03 19.05 СВ 2 н/о н/о -9.4 -10.3 93 -13 -13 1032.0 1026.4
06 19.05 СВ 2 н/о н/о -10.9 -12.1 91 -15 -15 1032.1 1026.5 -11.9 -6.0
09 19.05 СВ 1 н/о н/о -10.5 -11.7 91 -11 -11 1031.6 1026.1
12 19.05 штиль 0 н/о {осадки} н/о -9.3 -10.5 91 -10 -10 1031.8 1026.3 -11.5 -6.0 0.2 70
15 19.05 штиль 0 н/о н/о -8.1 -9.2 92 -9 -9 1031.0 1025.5 0.2
18 19.05 ЮВ 2 н/о н/о -7.1 -8.0 93 -12 -12 1030.3 1024.8 -11.5 -7.0 0.2
21 19.05 Ю 3 н/о н/о -6.0 -6.7 95 -11 -11 1029.5 1024.0
00 20.05 ЮВ 3 н/о н/о -5.6 -6.3 95 -11 -11 1028.6 1023.1 -10.9 -5.5
03 20.05 ЮВ 4 н/о н/о -6.9 -7.5 95 -14 -14 1027.3 1021.8
06 20.05 В 4 н/о н/о -7.4 -8.1 95 -14 -14 1026.3 1020.8 -10.9 -5.5
09 20.05 В 4 н/о н/о -7.3 -8.1 94 -14 -14 1025.1 1019.6
12 20.05 В 3 н/о н/о -6.8 -7.6 94 -13 -13 1024.1 1018.6 -7.6 -5.5 73
15 20.05 СВ 4 н/о н/о -6.6 -7.4 94 -13 -13 1023.2 1017.7
18 20.05 СВ 6 н/о н/о -5.7 -6.4 95 -14 -14 1022.4 1016.9 -7.6 -5.6
21 20.05 СВ 7 н/о н/о -4.6 -5.2 96 -13 -13 1022.1 1016.6
00 21.05 СВ 6 н/о н/о -5.8 -6.4 96 -14 -14 1022.2 1016.7 -7.6 -4.3
03 21.05 С 7 н/о н/о -7.2 -8.1 93 -16 -16 1021.9 1016.4
06 21.05 С 7 н/о н/о -8.6 -9.6 92 -18 -18 1022.1 1016.6 -8.6 -4.3 5
09 21.05 С 5 н/о н/о -8.5 -9.5 92 -16 -16 1022.6 1017.1
12 21.05 СВ 4 н/о н/о -8.7 -9.7 92 -15 -15 1023.4 1017.9 -8.8 -4.3 73
15 21.05 С 4 н/о н/о -8.4 -9.4 92 -15 -15 1023.7 1018.2
18 21.05 С 5 н/о н/о -8.8 -9.8 92 -17 -17 1023.9 1018.4 -9.0 -7.9
21 21.05 СВ 3 н/о н/о -7.7 -8.6 93 -14 -14 1024.4 1018.9
00 22.05 СВ 4 н/о н/о -8.5 -9.4 93 -15 -15 1025.2 1019.7 -9.0 -7.5 0.2
03 22.05 С 1 н/о н/о -8.3 -9.3 92 -11 -11 1026.1 1020.6
06 22.05 н/о н/о -8.5 -9.5 92 1026.8 1021.3 -9.0 -7.5 7
09 22.05 С 5 н/о н/о -7.7 -8.6 93 -15 -15 1027.7 1022.2
12 22.05 СЗ 4 н/о {осадки} н/о -7.9 -8.9 93 -15 -15 1028.5 1023.0 -8.8 -7.5 0.2 74
15 22.05 СЗ 5 н/о н/о -5.5 -6.3 94 -13 -13 1028.3 1022.8
18 22.05 СВ 3 н/о н/о -4.1 -4.6 96 -10 -10 1027.5 1022.0 -8.9 -3.8
21 22.05 С 4 н/о н/о -4.5 -5.1 96 -11 -11 1026.8 1021.3
00 23.05 С 9 н/о н/о -3.8 -4.2 97 -13 -13 1026.0 1020.5 -8.8 -2.7
03 23.05 С 9 н/о н/о -4.2 -4.7 96 -13 -13 1024.5 1019.0
06 23.05 С 9 н/о н/о -4.1 -4.5 97 -13 -13 1023.4 1018.0 -8.8 -2.7 1
09 23.05 С 9 н/о н/о -4.2 -4.7 96 -13 -13 1022.4 1017.0
12 23.05 С 9 н/о н/о -4.0 -4.4 97 -13 -13 1022.2 1016.8 -4.9 -2.7 72
15 23.05 н/о н/о -3.3 -3.7 97 1021.4 1016.0
18 23.05 н/о н/о -2.3 -2.6 98 1020.4 1015.0 -4.9 -2.2
21 23.05 С 9 н/о н/о -2.3 -2.6 98 -11 -11 1019.7 1014.3
00 24.05 С 8 н/о н/о -3.3 -3.6 98 -12 -12 1018.9 1013.5 -4.9 -2.0
03 24.05 С 9 н/о н/о -5.9 -6.6 95 -15 -15 1018.3 1012.9
06 24.05 С 10 н/о н/о -8.7 -9.7 92 -19 -19 1018.1 1012.7 -8.7 -2.0 6
09 24.05 С 9 н/о н/о -10.7 -11.9 91 -21 -21 1017.8 1012.4
12 24.05 С 10 н/о н/о -11.2 -12.5 90 -22 -22 1017.6 1012.2 -11.4 -2.0 71
15 24.05 С 11 н/о н/о -9.6 -10.7 92 -21 -21 1017.5 1012.0
18 24.05 С 10 н/о н/о -7.3 -8.3 93 -17 -17 1017.6 1012.1 -11.4 -7.3
21 24.05 СЗ 9 н/о н/о -6.5 -7.3 94 -16 -16 1017.1 1011.6
00 25.05 С 7 н/о н/о -6.2 -7.0 94 -15 -15 1017.1 1011.6 -11.4 -5.9
03 25.05 СЗ 7 н/о н/о -7.9 -8.8 93 -17 -17 1016.5 1011.0
06 25.05 СЗ 6 н/о н/о -8.2 -9.0 94 -16 -16 1015.5 1010.1 -11.4 -5.9 17

 

Местоположение метеостанции Джойа Хейвен (Нунавут, Канада): широта 68.63 долгота -95.85 высота над уровнем моря 43 м.

В архиве по умолчанию представлена погода в Джойа Хейвен за последнюю неделю. Архивные данные за месяц целиком и за предыдущие месяцы, начиная с января 2011 года, Вы можете получить, выбрав интересующий диапазон дат из раскрывающегося списка и нажав кнопку "Ввод!".


*Определитесь, кто Вы:
робот инопланетянин человек

Внимание! Время в таблицах - всемирное. Для получения местного времени необходимо прибавить поправку, которая равна -6 ч.

Смотрите также архив погоды в соседних городах и на ближайших метеорологических станциях:

Погода в Шеперд-Бее (Нунавут, Канада) (100 км)
Погода в Талойоаке (Нунавут, Канада) (136 км)
Погода на Острове Хат (Нунавут, Канада) (173 км)
Погода в Кугааруке (Нунавут, Канада) (246 км)
Погода в Кам Фор (Нунавут, Канада) (251 км)
Погода в Глеичене (Альберта, Канада) (285 км)
Погода в Кеймбридж-Бее (Нунавут, Канада) (374 км)
Погода в Кембридж Бэй (Нунавут, Канада) (374 км)
Погода в Вейджер Бэй (Нунавут, Канада) (412 км)
Погода в Бейкер Лейк (Нунавут, Канада) (479 км)

Пояснения к столбцам:

Ветер - указаны скорость ветра в м/с - средняя за 10 мин, порывы в срок и между сроками (в фигурных скобках) и направление, откуда дует ветер: С - северный, СВ - северо-восточный, В - восточный, ЮВ - юго-восточный, Ю - южный, ЮЗ - юго-западный, З - западный, СЗ - северо-западный.
Видимость - горизонтальная дальность видимости в метрах или километрах. При видимости от 1 до 10 км при отсутствии осадков обычно наблюдается дымка, при ухудшении видимости до 1 км и менее - туман. В сухую погоду видимость может ухудшаться дымом, пылью или мглою.
Явления - указаны атмосферные явления, наблюдавшиеся в срок или в последний час перед сроком; фигурными скобками обозначены явления, наблюдавшиеся между сроками (за 1-3 часа до срока); квадратными скобками обозначены град или гололедные отложения с указанием их диаметра в мм.
Облачность - указаны через наклонную черту общая и нижняя облачность в баллах и высота нижней границы облаков в метрах; квадратными скобками обозначены формы облаков: Ci - перистые, Cs - перисто-слоистые, Cc - перисто-кучевые, Ac - высококучевые, As - высокослоистые, Sc - слоисто-кучевые, Ns - слоисто-дождевые, Cu - кучевые, Cb - кучево-дождевые. Подробнее классификацию облаков см. в Атласе облаков (PDF).
T - Температура воздуха - температура, измеренная на высоте 2 м над землей.
Td - Температура точки росы - температура, при понижении до которой содержащийся в воздухе водяной пар достигнет насыщения.
f - Относительная влажность воздуха - влажноcть воздуха, измеренная на высоте 2 м над землей.
Te - Эффективная температура - температура, которую ощущает одетый по сезону человек в тени. Характеристика душности погоды. При расчете учитывается влияние влажности воздуха и скорости ветра на теплоощущения человека.
Tes - Эффективная температура на солнце - температура, которую ощущает человек, с поправкой на солнечный нагрев. Характеристика знойности погоды. Зависит от высоты солнца над горизонтом, облачности и скорости ветра. Ночью, в пасмурную погоду, а также при ветре 12 м/с и более поправка равна нулю.
P - Атмосферное давление - приведенное к уровню моря атмосферное давление.
Po - Атмосферное давление - измеренное на уровне метеостанции атмосферное давление.
Tmin - Минимальная температура - минимум температуры воздуха на высоте 2 м над землей.
Tmax - Максимальная температура - максимум температуры воздуха на высоте 2 м над землей.
R - Количество осадков - Количество выпавших осадков за период времени, мм. При наведении курсора мыши на число - период времени, за который выпало указанное количество осадков.
R24 - Количество осадков - Количество выпавших осадков за 24 часа, мм.
S - Снежный покров - Высота снежного покрова, см. При наведении курсора мыши на число - состояние снежного покрова и степень покрытия местности в баллах.